Hourly Data Report for February 11, 2017

All times are specified in Local Standard Time (LST). Add 1 hour to adjust for Daylight Saving Time where and when it is observed.

TORONTO CITY
ONTARIO

43°40'00.000" N
79°24'00.000" W
112.50 m
6158355
71508
XTO

Download Data

Hourly Data (February 2017)
Hourly Data Report for February 11, 2017
TIME Temp Definition
°C
Dew Point Definition
°C
Rel Hum Definition
%
Wind Dir Definition
10's deg

Wind Spd Definition
km/h
Visibility Definition
km
Stn Press Definition
kPa
Hmdx Definition


Wind Chill Definition


Weather Definition


00:00 -0.3 -6.3 64 LegendMM LegendMM   99.39     LegendNANA
01:00 -0.3 -5.8 67 LegendMM LegendMM   99.31     LegendNANA
02:00 0.2 -4.7 70 LegendMM LegendMM   99.28     LegendNANA
03:00 0.1 -5.8 65 LegendMM LegendMM   99.29     LegendNANA
04:00 -0.3 -5.7 67 LegendMM LegendMM   99.32     LegendNANA
05:00 -0.7 -5.6 69 LegendMM LegendMM   99.35     LegendNANA
06:00 -1.0 -5.2 73 LegendMM LegendMM   99.42     LegendNANA
07:00 -1.4 -5.2 76 LegendMM LegendMM   99.44     LegendNANA
08:00 -0.9 -4.7 76 LegendMM LegendMM   99.61     LegendNANA
09:00 0.3 -3.7 74 LegendMM LegendMM   99.65     LegendNANA
10:00 0.9 -3.2 74 LegendMM LegendMM   99.71     LegendNANA
11:00 1.9 -2.6 72 LegendMM LegendMM   99.79     LegendNANA
12:00 2.8 -1.9 71 LegendMM LegendMM   99.89     LegendNANA
13:00 4.1 -1.8 65 LegendMM LegendMM   99.92     LegendNANA
14:00 4.5 -1.9 63 LegendMM LegendMM   99.94     LegendNANA
15:00 4.2 -1.9 65 LegendMM LegendMM   99.95     LegendNANA
16:00 3.9 -1.6 67 LegendMM LegendMM   100.04     LegendNANA
17:00 3.2 -1.6 71 LegendMM LegendMM   100.13     LegendNANA
18:00 2.8 -2.0 70 LegendMM LegendMM   100.25     LegendNANA
19:00 2.8 -1.7 72 LegendMM LegendMM   100.33     LegendNANA
20:00 2.8 -1.7 72 LegendMM LegendMM   100.36     LegendNANA
21:00 2.7 -2.1 71 LegendMM LegendMM   100.36     LegendNANA
22:00 2.6 -1.8 73 LegendMM LegendMM   100.37     LegendNANA
23:00 2.3 0.3 87 LegendMM LegendMM   100.35     LegendNANA

Notes on Data Quality.

Legend

  • E = Estimated
  • M = Missing
  • NA = Not Available
Date modified: